Home > Weather > Christchurch > Past weeks

Flag for New Zealand Weather for the Past 2 Weeks in Christchurch, New Zealand

Now
61 °F

Mostly cloudy.


Feels Like: 61 °F
Forecast: 56 / 69 °F
Wind: 5 mph from Southwest

Location: Christchurch Airport

Current Time: Feb 13, 2016 at 7:58:10 AM

Latest Report: Feb 13, 2016 at 7:30 AM


Visibility: N/A

Pressure: 30.15 "Hg

Humidity: 94%

Dew point: 59 °F

Location of ChristchurchLocation

Historic Weather in Christchurch — Graph

°F

Christchurch Temperature Yesterday

Maximum temperature yesterday: 73 °F (at 1:00 PM)
Minimum temperature yesterday: 61 °F (at 12:00 AM)
Average temperature yesterday: 65 °F

High & Low Weather Summary for the Past Weeks

 TemperatureHumidityPressure
High88 °F (Feb 4, 2:00 PM)100% (Jan 30, 4:00 AM)30.21 "Hg (Jan 30, 4:00 AM)
Low48 °F (Feb 10, 7:00 AM)27% (Feb 4, 4:30 PM)29.68 "Hg (Feb 9, 11:30 AM)
Average63 °F78%29.97 "Hg
* Reported Jan 29 6:00 AM — Feb 13 6:30 AM, Christchurch, Weather by CustomWeather, © 2016

Note: Actual official high and low records may vary slightly from our data, if they occured in-between our weather recording intervals... More about our weather records

Advertising

Christchurch Weather History for the Previous 24 Hours

 ConditionsComfort  
Time TempWeatherWind HumidityBarometerVisibility
6:30 AM
Sat, Feb 13
61 °FOvercast.3 mph94%30.12 "HgN/A
6:00 AM61 °FOvercast.3 mph94%30.12 "HgN/A
5:30 AM61 °FSprinkles. Passing clouds.2 mph94%30.12 "HgN/A
5:00 AM61 °FMostly cloudy.6 mph94%30.12 "HgN/A
4:30 AM61 °FMostly cloudy.5 mph94%30.12 "HgN/A
4:00 AM63 °FOvercast.5 mph88%30.12 "HgN/A
3:30 AM63 °FPassing clouds.5 mph88%30.12 "HgN/A
3:00 AM63 °FMostly cloudy.2 mph83%30.12 "HgN/A
2:30 AM63 °FOvercast.1 mph83%30.12 "HgN/A
2:00 AM63 °FMostly cloudy.3 mph83%30.12 "HgN/A
1:30 AM63 °FOvercast.1 mph83%30.12 "HgN/A
1:00 AM63 °FPassing clouds.2 mph83%30.12 "HgN/A
12:30 AM63 °FPartly cloudy.2 mph83%30.12 "HgN/A
12:00 AM63 °FPassing clouds.1 mph83%30.12 "HgN/A
11:30 PM
Fri, Feb 12
63 °FOvercast.2 mph83%30.12 "HgN/A
11:00 PM63 °FPassing clouds.5 mph83%30.12 "HgN/A
10:30 PM63 °FOvercast.7 mph83%30.09 "HgN/A
10:00 PM63 °FOvercast.7 mph83%30.09 "HgN/A
9:30 PM63 °FOvercast.8 mph83%30.07 "HgN/A
9:00 PM63 °FOvercast.9 mph83%30.07 "HgN/A
8:30 PM63 °FScattered clouds.10 mph83%30.04 "HgN/A
8:00 PM64 °FPassing clouds.12 mph78%30.04 "HgN/A
7:30 PM64 °FPartly sunny.14 mph78%30.04 "HgN/A
7:00 PM66 °FPartly sunny.15 mph78%30.01 "HgN/A
6:30 PM66 °FMild.15 mph73%30.01 "HgN/A
6:00 PM68 °FMild.16 mph73%30.01 "HgN/A
5:30 PM70 °FMild.14 mph69%30.01 "HgN/A
5:00 PM70 °FMild.15 mph69%30.01 "HgN/A
4:30 PM72 °FMild.15 mph65%30.01 "HgN/A
4:00 PM72 °FMild.15 mph61%30.01 "HgN/A
3:30 PM72 °FMild.14 mph65%30.01 "HgN/A
3:00 PM73 °FMild.13 mph57%30.01 "HgN/A
2:30 PM72 °FMild.12 mph57%30.01 "HgN/A
2:00 PM72 °FMild.9 mph61%30.01 "HgN/A
1:30 PM72 °FMild.9 mph61%30.01 "HgN/A
1:00 PM73 °FMild.6 mph57%30.01 "HgN/A
12:30 PM72 °FMild.7 mph61%30.04 "HgN/A
12:00 PM72 °FMild.6 mph61%30.04 "HgN/A
10:00 AM64 °FPartly sunny.5 mph78%30.04 "HgN/A
9:30 AM63 °FOvercast.6 mph83%30.04 "HgN/A
9:00 AM63 °FPartly sunny.6 mph83%30.04 "HgN/A
8:30 AM61 °FOvercast.5 mph88%30.04 "HgN/A
8:00 AM61 °FOvercast.3 mph88%30.04 "HgN/A
7:30 AM61 °FOvercast.2 mph88%30.04 "HgN/A
7:00 AM61 °FOvercast.1 mph88%30.04 "HgN/A
Weather by CustomWeather, © 2016

See weather overviewHow to use our weather pages